Simultaneous Nadir Overpasses (SNOs) Predictions

Prediction of SNOs between AQUA and METOP-C Satellite Orbit:

Table of predicted SNOs for the next 14.0 days since TLE Epoch: 2/25/2023
Index Date (AQUA) Time (AQUA) Lat,Lon (AQUA) SZA (AQUA ) Date (METOP-C) Time (METOP-C) Lat,Lon (METOP-C) SZA (METOP-C ) Distance(km) Time Diff (sec)
1 02/27/2023 07:14:51 -74.23,-113.22 97.31 02/27/2023 07:14:09 -74.22,-113.29 97.31 2.41 42
2 02/27/2023 08:04:19 74.32, 54.23 82.77 02/27/2023 08:04:46 74.31, 54.25 82.76 1.52 27
3 03/02/2023 01:08:26 -74.00, -21.07 98.60 03/02/2023 01:07:15 -73.94, -22.24 98.61 36.60 71
4 03/02/2023 01:57:58 74.30, 145.89 81.70 03/02/2023 01:57:47 74.26, 145.90 81.68 3.57 11
5 03/02/2023 02:47:23 -74.34, -46.56 98.27 03/02/2023 02:48:28 -74.36, -46.53 98.25 2.95 65
6 03/04/2023 19:51:34 74.24,-122.37 80.59 03/04/2023 19:50:46 74.26,-122.35 80.62 2.58 48
7 03/04/2023 20:41:00 -74.33, 45.07 99.34 03/04/2023 20:41:28 -74.32, 45.10 99.35 1.81 28
8 03/07/2023 13:45:04 73.89, -29.94 79.15 03/07/2023 13:43:55 73.81, -31.72 79.14 55.55 69
9 03/07/2023 14:34:36 -74.29, 136.79 100.45 03/07/2023 14:34:28 -74.31, 136.83 100.43 2.49 8
10 03/07/2023 15:24:03 74.34, -55.68 79.59 03/07/2023 15:25:06 74.33, -55.77 79.59 2.59 63
11 03/10/2023 08:28:11 -74.26,-131.52 101.55 03/10/2023 08:27:29 -74.24,-131.58 101.57 3.05 42
12 03/10/2023 09:17:38 74.32, 35.99 78.50 03/10/2023 09:18:06 74.32, 35.94 78.49 1.47 28



Historial Predications of SNOs between AQUA and METOP-C
